User: anonymous   Login
Location: Meriden
(44.0740°N, 93.3870°W)
Time: 15:34:54
(UTC-06:00)
Language:

AO-27 - Orbit

View from above orbital plane
View from above orbital plane
View from above satellite
View from above satellite

Ground track
Ground track

The orbit data is extracted from the following two-line orbital elements,

1 22825U 93061C   17349.13355844 -.00000003 +00000-0 +16703-4 0  9990
2 22825 098.8381 317.1681 0008733 156.8701 203.2875 14.30016428262998
Epoch (UTC): 15 December 2017 03:12:19
Eccentricity: 0.0008733
inclination: 98.8381°
perigee height: 785 km
apogee height: 798 km
right ascension of ascending node: 317.1681°
argument of perigee: 156.8701°
revolutions per day: 14.30016428
mean anomaly at epoch: 203.2875°
orbit number at epoch: 26299

The dashed part of the orbit path shows where the satellite is in the earth's shadow,  

DLR